Regional Weather Roundup
Issued by NWS

Home | Current Version | Previous Version | Graphics & Text | Print | Product List | Glossary On
Versions: 1 2 3 4 5 6 7 8 9 10 11 12 13 14 15 16 17 18 19 20 21 22 23 24 25 26 27 28 29 30 31 32 33 34 35 36 37 38 39 40 41 42 43 44 45 46 47 48 49 50
000
ASUS43 KTOP 201359
RWRKS

WEATHER ROUNDUP FOR KANSAS
NATIONAL WEATHER SERVICE GOODLAND KS
800 AM CST MON FEB 20 2017

NOTE:  "FAIR" INDICATES FEW OR NO CLOUDS BELOW 12,000 FEET WITH NO
SIGNIFICANT WEATHER AND/OR OBSTRUCTIONS TO VISIBILITY.

KSZ001>006-013>018-027>032-041>047-201500-
NORTHWEST KANSAS

CITY           SKY/WX    TMP DP  RH WIND       PRES   REMARKS
GOODLAND       CLEAR     44  19  36 NW20      29.86R
HAYS           CLOUDY    48  45  89 SW6       29.74S
HILL CITY      CLOUDY    49  39  68 W6        29.78R
RUSSELL        CLOUDY    53  52  96 S8        29.74S
$$

KSZ061>065-074>080-084>089-201500-
SOUTHWEST KANSAS

CITY           SKY/WX    TMP DP  RH WIND       PRES   REMARKS
DODGE CITY     CLOUDY    47  37  68 W8        29.80R
ELKHART          N/A     44  25  47 NW9         N/A
GARDEN CITY    PTCLDY    45  32  60 NW10      29.81R
GREAT BEND     PTCLDY    53  51  93 S10       29.76R
LIBERAL        CLEAR     43  30  61 NW10      29.85R
$$

KSZ066>073-081>083-090>101-201500-
SOUTHEAST KANSAS

CITY           SKY/WX    TMP DP  RH WIND       PRES   REMARKS
CHANUTE        MOCLDY    60  58  92 S9        29.83F
COFFEYVILLE    LGT RAIN  59  58  96 SE10      29.84F
HUTCHINSON     CLOUDY    55  54  96 S9        29.78R FOG
MEDICINE LODGE   N/A     52  50  93 SW6       29.78R
NEWTON         CLOUDY    56  55  97 S14       29.80R
PARSONS        CLOUDY    60  58  92 S6        29.85S FOG
WICHITA INTL   CLOUDY    56  55  97 S10       29.80R
WICHITA JABRA  CLOUDY    57  56  96 SW13      29.80R
WICHITA MCCONL CLOUDY    57  55  94 SW12      29.80R
WINFIELD       CLOUDY    56  55  97 SW7       29.83R
$$

KSZ007>012-019>026-033>040-048>060-102>105-201500-
NORTHEAST KANSAS

CITY           SKY/WX    TMP DP  RH WIND       PRES   REMARKS
CONCORDIA      CLOUDY    57  57 100 S13       29.74F
EMPORIA        CLOUDY    58  58 100 S17       29.78S
LAWRENCE       CLOUDY    61  56  83 E12       29.80S
MANHATTAN      CLOUDY    58  56  93 CALM      29.78F
OLATHE IND     LGT RAIN  59  54  83 SE13      29.84R
OLATHE EXE     LGT RAIN  58  56  93 S16       29.83S
SALINA         MOCLDY    59  56  89 S12       29.76S
TOPEKA BILLARD LGT RAIN  60  56  86 SE8       29.79R
TOPEKA FORBES  CLOUDY    61  57  87 S9        29.79R
$$




USA.gov is the U.S. government's official web portal to all federal, state and local government web resources and services.